TJS-11

Last updated on Mon Jun 22 2026 00:03:08 GMT+0000 (Coordinated Universal Time)

1 59020U 24037A 26172.41213771 -.00000367 00000+0 00000+0 0 9991 2 59020 4.1931 327.1524 0003286 109.2598 94.2062 1.00274045 8625
UTC large
Height (km)
Speed (km/s)
/
Latitude / Longitude
Inclination (degrees)
Orbital Period (minutes)
Azimuth
Elevation
Range (km)
Doppler Factor

Next 0 passes for location: London (51.5072 / 0.1276)

No passes found over London.
TJS-11